sat.trackr.live / text

‹ back to catalog

STARLINK-31127

NORAD 58765 · 2024-011A

PAYLOAD ACTIVE UNKNOWN

§ Identity

Operator
Country
US
Launch date
2024-01-14
Launch site
AFWTR
Launch vehicle
Mass (kg)
RCS (m²)

Purposes: comms

External: N2YO · Heavens-Above · Gunter

§ Orbital elements

Epoch: 2026-09-20T22:02:23.373312Z

Period
93.85 min
Inclination
53.1581°
Eccentricity
0.0001500
Mean motion
15.34400841 rev/d
Perigee alt
461.7 km
Apogee alt
463.7 km
Semi-major
6,840.8 km
B*
2.9391e-4
RAAN
185.9413°
Arg perigee
90.2846°
Mean anomaly
269.8329°
Rev number
15,017

§ Raw data

STARLINK-311271 58765U 24011A   26263.91832608  .00009567  00000+0  29391-3 0  99982 58765  53.1581 185.9413 0001500  90.2846 269.8329 15.34400841150175

JSON: /api/v1/satellites/58765 · /tle

For live sub-satellite position, see the globe view (requires WebGL).

§ Visibility from observer

Set your observer location to see the next 7 days of passes ≥ 10°. The values pass through the URL so the page stays shareable.

No JS? Fill the form by hand. The geolocation button needs JavaScript.